This is the latest recevied weather packets stored in our database for station/object N2ZVN. If no packets are shown the sender has not sent any weather packets the latest 10 day(s).
| Time | Temp. | Humidity | Pressure | Rain* | Wind** | Luminosity | Snow |
|---|---|---|---|---|---|---|---|
| 1788054203 | 17.78° C | 87% | 1021.2 hPa | 0 mm | - | 0 W/m² | - |
| 1788053899 | 17.78° C | 86% | 1021 hPa | 0 mm | - | 0 W/m² | - |
| 1788053593 | 17.78° C | 87% | 1020.9 hPa | 0 mm | - | 0 W/m² | - |
| 1788053289 | 17.78° C | 87% | 1021 hPa | 0 mm | - | 0 W/m² | - |
| 1788052984 | 17.78° C | 85% | 1021.2 hPa | 0 mm | - | 0 W/m² | - |
| 1788052680 | 17.78° C | 89% | 1020.9 hPa | 0 mm | - | 0 W/m² | - |
| 1788052375 | 17.78° C | 88% | 1020.8 hPa | 0 mm | - | 0 W/m² | - |
| 1788052070 | 17.78° C | 86% | 1020.7 hPa | 0 mm | - | 0 W/m² | - |
| 1788051765 | 17.78° C | 88% | 1020.9 hPa | 0 mm | - | 0 W/m² | - |
| 1788051464 | 18.33° C | 87% | 1020.8 hPa | 0 mm | - | 0 W/m² | - |
| 1788051157 | 18.33° C | 86% | 1020.9 hPa | 0 mm | - | 0 W/m² | - |
| 1788050856 | 18.33° C | 86% | 1020.8 hPa | 0 mm | - | 0 W/m² | - |
| 1788050552 | 18.33° C | 88% | 1020.7 hPa | 0 mm | - | 0 W/m² | - |
| 1788050247 | 18.33° C | 88% | 1020.9 hPa | 0 mm | - | 0 W/m² | - |
| 1788049941 | 18.33° C | 87% | 1020.9 hPa | 0 mm | - | 0 W/m² | - |
| 1788049638 | 18.33° C | 85% | 1020.9 hPa | 0 mm | - | 0 W/m² | - |
| 1788049334 | 18.33° C | 85% | 1020.8 hPa | 0 mm | - | 0 W/m² | - |
| 1788049029 | 18.89° C | 87% | 1020.9 hPa | 0 mm | - | 0 W/m² | - |
| 1788048725 | 18.89° C | 85% | 1020.8 hPa | 0 mm | - | 0 W/m² | - |
| 1788048423 | 18.89° C | 85% | 1020.8 hPa | 0 mm | - | 0 W/m² | - |
| 1788048122 | 19.44° C | 85% | 1020.4 hPa | 0 mm | - | 0 W/m² | - |
| 1788047820 | 19.44° C | 83% | 1020.6 hPa | 0 mm | - | 1 W/m² | - |
| 1788047514 | 19.44° C | 82% | 1020.7 hPa | 0 mm | - | 1 W/m² | - |
| 1788047209 | 19.44° C | 82% | 1020.7 hPa | 0 mm | - | 2 W/m² | - |
| 1788046904 | 19.44° C | 82% | 1020.7 hPa | 0 mm | - | 2 W/m² | - |
* Rain latest hour (hover to see other rain measurements)
** Current wind speed in m/s (hover to see current wind gust speed)